Starlink 31667

operational
NORAD ID: 59609 Int'l Des: 2024-080 Owner: SPXS Country: US Constellation: starlink
LEOCIRCULAR

关于 Starlink 31667

正在加载描述...

实时位置

正在加载3D地球...

即将过境

高度历史

Altitude vs Time

uPlot chart will show altitude changes over time

两行轨道根数

1 59609U 24080J 25308.57866789 .00003570 00000-0 13910-3 0 9999
2 59609 43.0049 20.5643 0000813 288.5292 71.5472 15.27603850 85443
Epoch: Nov 4, 2025 • Age: 7 hours

当前状态

高度 482.5 km
速度 7.63 km/s
星下点 17.22°N, 177.28°W
发射日期 Apr 28, 2024
运行时间 1.5 years
类型 internet

技术详情

分类 Payload
质量 730.00 kg
干质量 700.00 kg
总质量 730.00 kg
长度 0.30 m
直径 4.10 m
跨度 29.00 m
形状 Box + pan
制造商 SPXS
平台类型 Starlink V2M
阶段状态 In Orbit
所有者/国家 SPXS/US

大型星座

Loading constellations...